Time,TemperatureF,DewpointF,PressureIn,WindDirection,WindDirectionDegrees,WindSpeedMPH,WindSpeedGustMPH,Humidity,HourlyPrecipIn,Conditions,Clouds,dailyrainin,SoftwareType,DateUTC
2013-04-17 00:00:00,62.1,55.9,30.17,SSE,167,0.0,0.0,80,0.00,,---,0.00,VWS V14.01,2013-04-17 04:00:00,
2013-04-17 00:05:00,62.3,56.1,30.17,SSE,167,0.0,0.0,80,0.00,,---,0.00,VWS V14.01,2013-04-17 04:05:00,
2013-04-17 00:10:00,62.4,56.2,30.17,SSE,165,0.0,0.0,80,0.00,,---,0.00,VWS V14.01,2013-04-17 04:10:00,
2013-04-17 00:15:00,62.4,56.2,30.17,SSE,165,0.0,0.0,80,0.00,,---,0.00,VWS V14.01,2013-04-17 04:15:00,
2013-04-17 00:20:00,62.4,56.5,30.17,SSW,208,0.0,0.0,81,0.00,,---,0.00,VWS V14.01,2013-04-17 04:20:00,
2013-04-17 00:25:00,62.4,56.5,30.17,SSE,148,0.0,0.0,81,0.00,,---,0.00,VWS V14.01,2013-04-17 04:25:00,
2013-04-17 00:30:00,62.4,56.5,30.17,SSE,151,0.0,0.0,81,0.00,,---,0.00,VWS V14.01,2013-04-17 04:30:00,
2013-04-17 00:35:00,62.4,56.5,30.16,SSE,151,0.0,0.0,81,0.00,,---,0.00,VWS V14.01,2013-04-17 04:35:00,
2013-04-17 00:40:00,62.4,56.8,30.16,SE,140,0.0,0.0,82,0.00,,---,0.00,VWS V14.01,2013-04-17 04:40:00,
2013-04-17 00:45:00,62.6,57.0,30.16,South,169,0.0,0.0,82,0.00,,---,0.00,VWS V14.01,2013-04-17 04:45:00,
2013-04-17 00:50:00,62.6,57.0,30.16,SW,222,0.0,0.0,82,0.00,,---,0.00,VWS V14.01,2013-04-17 04:50:00,
2013-04-17 00:55:00,62.6,57.4,30.16,South,176,0.0,0.0,83,0.00,,---,0.00,VWS V14.01,2013-04-17 04:55:00,
2013-04-17 01:00:00,62.6,57.4,30.16,SW,219,0.0,0.0,83,0.00,,---,0.00,VWS V14.01,2013-04-17 05:00:00,
2013-04-17 01:05:00,62.4,57.2,30.17,SSW,205,0.0,0.0,83,0.00,,---,0.00,VWS V14.01,2013-04-17 05:05:00,
2013-04-17 01:10:00,62.4,57.2,30.17,SSE,150,0.0,0.0,83,0.00,,---,0.00,VWS V14.01,2013-04-17 05:10:00,
2013-04-17 01:15:00,62.3,57.4,30.17,SSE,160,0.0,0.0,84,0.00,,---,0.00,VWS V14.01,2013-04-17 05:15:00,
2013-04-17 01:20:00,62.3,57.7,30.17,SSW,198,0.0,0.0,85,0.00,,---,0.00,VWS V14.01,2013-04-17 05:20:00,
2013-04-17 01:25:00,62.3,57.7,30.17,SSW,198,0.0,0.0,85,0.00,,---,0.00,VWS V14.01,2013-04-17 05:25:00,
2013-04-17 01:30:00,62.3,57.7,30.17,ESE,107,0.0,0.0,85,0.00,,---,0.00,VWS V14.01,2013-04-17 05:30:00,
2013-04-17 01:35:00,62.3,57.7,30.17,SSE,168,0.0,0.0,85,0.00,,---,0.00,VWS V14.01,2013-04-17 05:35:00,
2013-04-17 01:40:00,62.3,57.7,30.17,East,93,0.0,0.0,85,0.00,,---,0.00,VWS V14.01,2013-04-17 05:40:00,
2013-04-17 01:45:00,62.3,57.7,30.17,ESE,103,0.0,0.0,85,0.00,,---,0.00,VWS V14.01,2013-04-17 05:45:00,
2013-04-17 01:50:00,62.1,57.5,30.17,ESE,103,0.0,0.0,85,0.00,,---,0.00,VWS V14.01,2013-04-17 05:50:00,
2013-04-17 01:55:00,62.1,57.5,30.17,ESE,103,0.0,0.0,85,0.00,,---,0.00,VWS V14.01,2013-04-17 05:55:00,
2013-04-17 02:00:00,62.1,57.9,30.17,ESE,103,0.0,0.0,86,0.00,,---,0.00,VWS V14.01,2013-04-17 06:00:00,
2013-04-17 02:05:00,62.0,57.8,30.16,ESE,103,0.0,0.0,86,0.00,,---,0.00,VWS V14.01,2013-04-17 06:05:00,
2013-04-17 02:10:00,62.0,57.8,30.16,WSW,247,0.0,0.0,86,0.00,,---,0.00,VWS V14.01,2013-04-17 06:10:00,
2013-04-17 02:15:00,61.8,57.6,30.16,South,169,0.0,0.0,86,0.00,,---,0.00,VWS V14.01,2013-04-17 06:15:00,
2013-04-17 02:20:00,61.8,57.6,30.16,South,172,0.0,0.0,86,0.00,,---,0.00,VWS V14.01,2013-04-17 06:20:00,
2013-04-17 02:25:00,61.8,57.6,30.16,SE,140,0.0,0.0,86,0.00,,---,0.00,VWS V14.01,2013-04-17 06:25:00,
2013-04-17 02:30:00,61.8,57.9,30.16,SE,140,0.0,0.0,87,0.00,,---,0.00,VWS V14.01,2013-04-17 06:30:00,
2013-04-17 02:35:00,61.6,57.7,30.15,SSE,158,0.0,0.0,87,0.00,,---,0.00,VWS V14.01,2013-04-17 06:35:00,
2013-04-17 02:40:00,61.6,57.7,30.15,SE,130,0.0,0.0,87,0.00,,---,0.00,VWS V14.01,2013-04-17 06:40:00,
2013-04-17 02:45:00,61.5,57.6,30.15,SSE,165,0.0,0.0,87,0.00,,---,0.00,VWS V14.01,2013-04-17 06:45:00,
2013-04-17 02:50:00,61.5,57.6,30.15,ESE,102,0.0,0.0,87,0.00,,---,0.00,VWS V14.01,2013-04-17 06:50:00,
2013-04-17 02:55:00,61.5,57.6,30.15,South,179,0.0,2.0,87,0.00,,---,0.00,VWS V14.01,2013-04-17 06:55:00,
2013-04-17 03:00:00,61.3,57.7,30.15,SSE,160,0.0,0.0,88,0.00,,---,0.00,VWS V14.01,2013-04-17 07:00:00,
2013-04-17 03:05:00,61.3,57.7,30.15,SSE,154,0.0,0.0,88,0.00,,---,0.00,VWS V14.01,2013-04-17 07:05:00,
2013-04-17 03:10:00,61.2,57.6,30.15,SSE,154,0.0,0.0,88,0.00,,---,0.00,VWS V14.01,2013-04-17 07:10:00,
2013-04-17 03:15:00,61.2,57.6,30.15,SSE,154,0.0,0.0,88,0.00,,---,0.00,VWS V14.01,2013-04-17 07:15:00,
2013-04-17 03:20:00,61.2,57.6,30.14,SE,138,0.0,0.0,88,0.00,,---,0.00,VWS V14.01,2013-04-17 07:20:00,
2013-04-17 03:25:00,61.0,57.4,30.14,SE,130,0.0,0.0,88,0.00,,---,0.00,VWS V14.01,2013-04-17 07:25:00,
2013-04-17 03:30:00,61.0,57.4,30.14,SE,136,0.0,0.0,88,0.00,,---,0.00,VWS V14.01,2013-04-17 07:30:00,
2013-04-17 03:35:00,60.9,57.6,30.14,SE,136,0.0,0.0,89,0.00,,---,0.00,VWS V14.01,2013-04-17 07:35:00,
2013-04-17 03:40:00,60.7,57.4,30.14,SE,136,0.0,0.0,89,0.00,,---,0.00,VWS V14.01,2013-04-17 07:40:00,
2013-04-17 03:45:00,60.7,57.4,30.14,SE,133,0.0,0.0,89,0.00,,---,0.00,VWS V14.01,2013-04-17 07:45:00,
2013-04-17 03:50:00,60.5,57.2,30.14,ESE,116,0.0,0.0,89,0.00,,---,0.00,VWS V14.01,2013-04-17 07:50:00,
2013-04-17 03:55:00,60.5,57.2,30.14,ESE,116,0.0,0.0,89,0.00,,---,0.00,VWS V14.01,2013-04-17 07:55:00,
2013-04-17 04:00:00,60.5,57.6,30.14,SSW,200,0.0,0.0,90,0.00,,---,0.00,VWS V14.01,2013-04-17 08:00:00,
2013-04-17 04:05:00,60.4,57.2,30.14,SSW,200,0.0,0.0,89,0.00,,---,0.00,VWS V14.01,2013-04-17 08:05:00,
2013-04-17 04:10:00,60.4,57.2,30.14,SSW,195,0.0,0.0,89,0.00,,---,0.00,VWS V14.01,2013-04-17 08:10:00,
2013-04-17 04:15:00,60.2,57.3,30.14,SSW,195,0.0,0.0,90,0.00,,---,0.00,VWS V14.01,2013-04-17 08:15:00,
2013-04-17 04:20:00,60.1,57.2,30.14,SSW,193,0.0,0.0,90,0.00,,---,0.00,VWS V14.01,2013-04-17 08:20:00,
2013-04-17 04:25:00,60.1,57.2,30.14,South,176,0.0,0.0,90,0.00,,---,0.00,VWS V14.01,2013-04-17 08:25:00,
2013-04-17 04:30:00,60.1,57.2,30.14,South,176,0.0,0.0,90,0.00,,---,0.00,VWS V14.01,2013-04-17 08:30:00,
2013-04-17 04:35:00,59.9,57.0,30.14,South,176,0.0,0.0,90,0.00,,---,0.00,VWS V14.01,2013-04-17 08:35:00,
2013-04-17 04:40:00,59.9,57.0,30.14,South,176,0.0,0.0,90,0.00,,---,0.00,VWS V14.01,2013-04-17 08:40:00,
2013-04-17 04:45:00,59.9,57.3,30.14,South,176,0.0,0.0,91,0.00,,---,0.00,VWS V14.01,2013-04-17 08:45:00,
2013-04-17 04:50:00,59.8,57.2,30.14,South,176,0.0,0.0,91,0.00,,---,0.00,VWS V14.01,2013-04-17 08:50:00,
2013-04-17 04:55:00,59.6,57.0,30.14,South,176,0.0,0.0,91,0.00,,---,0.00,VWS V14.01,2013-04-17 08:55:00,
2013-04-17 05:00:00,59.5,56.6,30.14,South,176,0.0,0.0,90,0.00,,---,0.00,VWS V14.01,2013-04-17 09:00:00,
2013-04-17 05:05:00,59.3,56.4,30.14,South,176,0.0,0.0,90,0.00,,---,0.00,VWS V14.01,2013-04-17 09:05:00,
2013-04-17 05:10:00,59.2,56.6,30.14,South,176,0.0,0.0,91,0.00,,---,0.00,VWS V14.01,2013-04-17 09:10:00,
2013-04-17 05:15:00,59.0,56.4,30.14,South,176,0.0,0.0,91,0.00,,---,0.00,VWS V14.01,2013-04-17 09:15:00,
2013-04-17 05:20:00,58.9,56.3,30.14,South,176,0.0,0.0,91,0.00,,---,0.00,VWS V14.01,2013-04-17 09:20:00,
2013-04-17 05:25:00,58.7,56.1,30.14,South,176,0.0,0.0,91,0.00,,---,0.00,VWS V14.01,2013-04-17 09:25:00,
2013-04-17 05:30:00,58.7,56.1,30.14,South,176,0.0,0.0,91,0.00,,---,0.00,VWS V14.01,2013-04-17 09:30:00,
2013-04-17 05:35:00,58.4,55.8,30.14,South,176,0.0,0.0,91,0.00,,---,0.00,VWS V14.01,2013-04-17 09:35:00,
2013-04-17 05:40:00,58.4,55.8,30.14,South,176,0.0,0.0,91,0.00,,---,0.00,VWS V14.01,2013-04-17 09:40:00,
2013-04-17 05:45:00,58.3,55.7,30.14,South,176,0.0,0.0,91,0.00,,---,0.00,VWS V14.01,2013-04-17 09:45:00,
2013-04-17 05:50:00,58.1,55.8,30.14,South,176,0.0,0.0,92,0.00,,---,0.00,VWS V14.01,2013-04-17 09:50:00,
2013-04-17 05:55:00,58.1,55.8,30.14,South,176,0.0,0.0,92,0.00,,---,0.00,VWS V14.01,2013-04-17 09:55:00,
2013-04-17 06:00:00,58.3,56.3,30.14,South,176,0.0,0.0,93,0.00,,---,0.00,VWS V14.01,2013-04-17 10:00:00,
2013-04-17 06:05:00,58.4,56.4,30.15,South,176,0.0,0.0,93,0.00,,---,0.00,VWS V14.01,2013-04-17 10:05:00,
2013-04-17 06:10:00,58.4,56.4,30.15,South,178,0.0,0.0,93,0.00,,---,0.00,VWS V14.01,2013-04-17 10:10:00,
2013-04-17 06:15:00,58.6,56.6,30.15,South,178,0.0,0.0,93,0.00,,---,0.00,VWS V14.01,2013-04-17 10:15:00,
2013-04-17 06:20:00,58.7,57.0,30.15,South,178,0.0,0.0,94,0.00,,---,0.00,VWS V14.01,2013-04-17 10:20:00,
2013-04-17 06:25:00,58.7,57.0,30.15,South,178,0.0,0.0,94,0.00,,---,0.00,VWS V14.01,2013-04-17 10:25:00,
2013-04-17 06:30:00,58.7,57.0,30.15,South,178,0.0,0.0,94,0.00,,---,0.00,VWS V14.01,2013-04-17 10:30:00,
2013-04-17 06:35:00,58.7,57.0,30.16,South,178,0.0,0.0,94,0.00,,---,0.00,VWS V14.01,2013-04-17 10:35:00,
2013-04-17 06:40:00,58.9,57.2,30.16,South,178,0.0,0.0,94,0.00,,---,0.00,VWS V14.01,2013-04-17 10:40:00,
2013-04-17 06:45:00,58.9,57.2,30.16,South,178,0.0,0.0,94,0.00,,---,0.00,VWS V14.01,2013-04-17 10:45:00,
2013-04-17 06:50:00,58.9,57.2,30.16,South,178,0.0,0.0,94,0.00,,---,0.00,VWS V14.01,2013-04-17 10:50:00,
2013-04-17 06:55:00,59.0,57.3,30.16,South,178,0.0,0.0,94,0.00,,---,0.00,VWS V14.01,2013-04-17 10:55:00,
2013-04-17 07:00:00,59.0,57.3,30.16,South,178,0.0,0.0,94,0.00,,---,0.00,VWS V14.01,2013-04-17 11:00:00,
2013-04-17 07:05:00,59.0,57.3,30.17,South,178,0.0,0.0,94,0.00,,---,0.00,VWS V14.01,2013-04-17 11:05:00,
2013-04-17 07:10:00,59.2,57.5,30.17,SSE,155,0.0,0.0,94,0.00,,---,0.00,VWS V14.01,2013-04-17 11:10:00,
2013-04-17 07:15:00,59.2,57.5,30.17,SSE,155,0.0,0.0,94,0.00,,---,0.00,VWS V14.01,2013-04-17 11:15:00,
2013-04-17 07:20:00,59.5,57.8,30.17,SSE,155,0.0,0.0,94,0.00,,---,0.00,VWS V14.01,2013-04-17 11:20:00,
2013-04-17 07:25:00,59.5,57.8,30.17,SSE,155,0.0,0.0,94,0.00,,---,0.00,VWS V14.01,2013-04-17 11:25:00,
2013-04-17 07:30:00,59.8,58.4,30.17,SSE,155,0.0,0.0,95,0.00,,---,0.00,VWS V14.01,2013-04-17 11:30:00,
2013-04-17 07:35:00,60.1,58.7,30.17,SE,144,0.0,0.0,95,0.00,,---,0.00,VWS V14.01,2013-04-17 11:35:00,
2013-04-17 07:40:00,60.4,59.0,30.17,SSE,147,0.0,0.0,95,0.00,,---,0.00,VWS V14.01,2013-04-17 11:40:00,
2013-04-17 07:45:00,60.5,59.1,30.17,South,176,0.0,0.0,95,0.00,,---,0.00,VWS V14.01,2013-04-17 11:45:00,
2013-04-17 07:50:00,60.9,59.5,30.17,South,179,0.0,0.0,95,0.00,,---,0.00,VWS V14.01,2013-04-17 11:50:00,
2013-04-17 07:55:00,61.2,59.5,30.17,South,179,0.0,0.0,94,0.00,,---,0.00,VWS V14.01,2013-04-17 11:55:00,
2013-04-17 08:00:00,61.6,59.9,30.17,South,178,0.0,0.0,94,0.00,,---,0.00,VWS V14.01,2013-04-17 12:00:00,
2013-04-17 08:05:00,62.1,59.8,30.17,East,97,0.0,0.0,92,0.00,,---,0.00,VWS V14.01,2013-04-17 12:05:00,
2013-04-17 08:10:00,62.6,60.2,30.17,SW,224,0.0,0.0,92,0.00,,---,0.00,VWS V14.01,2013-04-17 12:10:00,
2013-04-17 08:15:00,63.1,60.4,30.17,SE,124,0.0,0.0,91,0.00,,---,0.00,VWS V14.01,2013-04-17 12:15:00,
2013-04-17 08:20:00,63.4,60.1,30.17,East,96,0.0,0.0,89,0.00,,---,0.00,VWS V14.01,2013-04-17 12:20:00,
2013-04-17 08:25:00,63.7,60.1,30.17,East,96,0.0,0.0,88,0.00,,---,0.00,VWS V14.01,2013-04-17 12:25:00,
2013-04-17 08:30:00,63.9,60.3,30.17,SSE,167,0.0,0.0,88,0.00,,---,0.00,VWS V14.01,2013-04-17 12:30:00,
2013-04-17 08:35:00,64.0,60.1,30.17,SSE,164,0.0,0.0,87,0.00,,---,0.00,VWS V14.01,2013-04-17 12:35:00,
2013-04-17 08:40:00,64.2,59.9,30.17,SE,130,0.0,0.0,86,0.00,,---,0.00,VWS V14.01,2013-04-17 12:40:00,
2013-04-17 08:45:00,64.5,60.2,30.17,ENE,62,0.0,0.0,86,0.00,,---,0.00,VWS V14.01,2013-04-17 12:45:00,
2013-04-17 08:50:00,64.7,60.1,30.16,SE,133,0.0,0.0,85,0.00,,---,0.00,VWS V14.01,2013-04-17 12:50:00,
2013-04-17 08:55:00,65.0,60.4,30.16,SSE,147,0.0,0.0,85,0.00,,---,0.00,VWS V14.01,2013-04-17 12:55:00,
2013-04-17 09:00:00,65.3,60.3,30.16,ENE,61,0.0,0.0,84,0.00,,---,0.00,VWS V14.01,2013-04-17 13:00:00,
2013-04-17 09:05:00,65.6,60.3,30.15,ENE,61,0.0,0.0,83,0.00,,---,0.00,VWS V14.01,2013-04-17 13:05:00,
2013-04-17 09:10:00,66.0,60.3,30.15,NE,34,0.0,0.0,82,0.00,,---,0.00,VWS V14.01,2013-04-17 13:10:00,
2013-04-17 09:15:00,66.3,60.7,30.15,SW,234,0.0,0.0,82,0.00,,---,0.00,VWS V14.01,2013-04-17 13:15:00,
2013-04-17 09:20:00,66.8,60.4,30.15,South,175,0.0,0.0,80,0.00,,---,0.00,VWS V14.01,2013-04-17 13:20:00,
2013-04-17 09:25:00,67.3,60.6,30.15,ESE,109,0.0,0.0,79,0.00,,---,0.00,VWS V14.01,2013-04-17 13:25:00,
2013-04-17 09:30:00,67.4,60.7,30.15,NE,40,0.0,0.0,79,0.00,,---,0.00,VWS V14.01,2013-04-17 13:30:00,
2013-04-17 09:35:00,67.8,60.7,30.15,NE,40,0.0,0.0,78,0.00,,---,0.00,VWS V14.01,2013-04-17 13:35:00,
2013-04-17 09:40:00,68.3,60.5,30.15,South,184,0.0,1.0,76,0.00,,---,0.00,VWS V14.01,2013-04-17 13:40:00,
2013-04-17 09:45:00,68.6,60.4,30.15,ESE,104,0.0,0.0,75,0.00,,---,0.00,VWS V14.01,2013-04-17 13:45:00,
2013-04-17 09:50:00,69.3,61.0,30.14,ESE,104,0.0,0.0,75,0.00,,---,0.00,VWS V14.01,2013-04-17 13:50:00,
2013-04-17 09:55:00,69.8,60.4,30.14,ESE,120,0.0,0.0,72,0.00,,---,0.00,VWS V14.01,2013-04-17 13:55:00,
2013-04-17 10:00:00,70.4,60.2,30.14,SSE,167,0.0,0.0,70,0.00,,---,0.00,VWS V14.01,2013-04-17 14:00:00,
2013-04-17 10:05:00,70.8,60.5,30.14,SSE,152,0.0,0.0,70,0.00,,---,0.00,VWS V14.01,2013-04-17 14:05:00,
2013-04-17 10:10:00,71.5,60.4,30.14,SSE,164,0.0,0.0,68,0.00,,---,0.00,VWS V14.01,2013-04-17 14:10:00,
2013-04-17 10:15:00,71.6,60.1,30.14,SE,131,0.0,0.0,67,0.00,,---,0.00,VWS V14.01,2013-04-17 14:15:00,
2013-04-17 10:20:00,72.1,60.5,30.14,SE,136,0.0,0.0,67,0.00,,---,0.00,VWS V14.01,2013-04-17 14:20:00,
2013-04-17 10:25:00,72.5,60.5,30.14,SSW,198,0.0,0.0,66,0.00,,---,0.00,VWS V14.01,2013-04-17 14:25:00,
2013-04-17 10:30:00,73.0,60.5,30.14,South,176,0.0,0.0,65,0.00,,---,0.00,VWS V14.01,2013-04-17 14:30:00,
2013-04-17 10:34:00,73.5,60.6,30.14,ESE,113,0.0,0.0,64,0.00,,---,0.00,VWS V14.01,2013-04-17 14:34:00,
2013-04-17 10:39:00,74.0,61.1,30.14,SSE,165,0.0,0.0,64,0.00,,---,0.00,VWS V14.01,2013-04-17 14:39:00,
2013-04-17 10:44:00,74.9,60.6,30.14,SE,138,0.0,0.0,61,0.00,,---,0.00,VWS V14.01,2013-04-17 14:44:00,
2013-04-17 10:49:00,75.6,59.8,30.13,South,176,0.0,0.0,58,0.00,,---,0.00,VWS V14.01,2013-04-17 14:49:00,
2013-04-17 10:54:00,75.6,60.3,30.13,South,189,0.0,0.0,59,0.00,,---,0.00,VWS V14.01,2013-04-17 14:54:00,
2013-04-17 10:59:00,76.0,60.7,30.13,ENE,61,0.0,0.0,59,0.00,,---,0.00,VWS V14.01,2013-04-17 14:59:00,
2013-04-17 11:04:00,76.3,60.9,30.14,NE,37,0.0,0.0,59,0.00,,---,0.00,VWS V14.01,2013-04-17 15:04:00,
2013-04-17 11:09:00,77.0,59.6,30.14,SSE,167,0.0,0.0,55,0.00,,---,0.00,VWS V14.01,2013-04-17 15:09:00,
2013-04-17 11:14:00,77.2,60.3,30.14,SE,136,0.0,0.0,56,0.00,,---,0.00,VWS V14.01,2013-04-17 15:14:00,
2013-04-17 11:19:00,77.4,59.5,30.13,South,181,0.0,3.0,54,0.00,,---,0.00,VWS V14.01,2013-04-17 15:19:00,
2013-04-17 11:24:00,77.7,59.2,30.13,SSW,193,0.0,0.0,53,0.00,,---,0.00,VWS V14.01,2013-04-17 15:24:00,
2013-04-17 11:29:00,78.1,60.6,30.13,East,99,0.0,2.0,55,0.00,,---,0.00,VWS V14.01,2013-04-17 15:29:00,
2013-04-17 11:34:00,78.1,60.1,30.13,South,175,0.0,0.0,54,0.00,,---,0.00,VWS V14.01,2013-04-17 15:34:00,
2013-04-17 11:39:00,78.3,59.2,30.13,South,186,0.0,0.0,52,0.00,,---,0.00,VWS V14.01,2013-04-17 15:39:00,
2013-04-17 11:44:00,78.6,60.1,30.13,NNE,17,0.0,0.0,53,0.00,,---,0.00,VWS V14.01,2013-04-17 15:44:00,
2013-04-17 11:49:00,79.8,60.6,30.13,NNE,17,0.0,0.0,52,0.00,,---,0.00,VWS V14.01,2013-04-17 15:49:00,
2013-04-17 11:54:00,80.1,59.2,30.13,NE,55,0.0,1.0,49,0.00,,---,0.00,VWS V14.01,2013-04-17 15:54:00,
2013-04-17 11:59:00,80.1,59.2,30.13,North,0,0.0,0.0,49,0.00,,---,0.00,VWS V14.01,2013-04-17 15:59:00,
2013-04-17 12:04:00,79.9,59.6,30.13,North,359,0.0,0.0,50,0.00,,---,0.00,VWS V14.01,2013-04-17 16:04:00,
2013-04-17 12:09:00,79.9,60.2,30.13,East,86,0.0,0.0,51,0.00,,---,0.00,VWS V14.01,2013-04-17 16:09:00,
2013-04-17 12:14:00,80.3,59.4,30.13,NNE,28,0.0,0.0,49,0.00,,---,0.00,VWS V14.01,2013-04-17 16:14:00,
2013-04-17 12:19:00,80.3,59.4,30.12,NE,37,0.0,0.0,49,0.00,,---,0.00,VWS V14.01,2013-04-17 16:19:00,
2013-04-17 12:24:00,80.7,59.8,30.12,NE,47,0.0,0.0,49,0.00,,---,0.00,VWS V14.01,2013-04-17 16:24:00,
2013-04-17 12:29:00,80.9,60.0,30.12,South,179,0.0,5.0,49,0.00,,---,0.00,VWS V14.01,2013-04-17 16:29:00,
2013-04-17 12:34:00,81.2,60.8,30.11,NNW,332,0.0,0.0,50,0.00,,---,0.00,VWS V14.01,2013-04-17 16:34:00,
2013-04-17 12:39:00,81.1,60.2,30.11,SE,136,0.0,0.0,49,0.00,,---,0.00,VWS V14.01,2013-04-17 16:39:00,
2013-04-17 12:44:00,80.9,60.5,30.11,NNW,346,0.0,0.0,50,0.00,,---,0.00,VWS V14.01,2013-04-17 16:44:00,
2013-04-17 12:49:00,81.2,60.2,30.11,NNE,17,0.0,0.0,49,0.00,,---,0.00,VWS V14.01,2013-04-17 16:49:00,
2013-04-17 12:54:00,81.2,60.2,30.11,NNE,23,0.0,0.0,49,0.00,,---,0.00,VWS V14.01,2013-04-17 16:54:00,
2013-04-17 12:59:00,81.4,59.8,30.11,SE,138,0.0,3.0,48,0.00,,---,0.00,VWS V14.01,2013-04-17 16:59:00,
2013-04-17 13:04:00,82.0,60.4,30.11,East,86,3.0,5.0,48,0.00,,---,0.00,VWS V14.01,2013-04-17 17:04:00,
2013-04-17 13:09:00,82.0,59.8,30.11,NE,37,0.0,2.0,47,0.00,,---,0.00,VWS V14.01,2013-04-17 17:09:00,
2013-04-17 13:14:00,82.6,60.9,30.11,North,11,0.0,3.0,48,0.00,,---,0.00,VWS V14.01,2013-04-17 17:14:00,
2013-04-17 13:19:00,82.6,59.8,30.10,SE,145,0.0,5.0,46,0.00,,---,0.00,VWS V14.01,2013-04-17 17:19:00,
2013-04-17 13:24:00,83.2,60.9,30.10,ENE,69,0.0,0.0,47,0.00,,---,0.00,VWS V14.01,2013-04-17 17:24:00,
2013-04-17 13:29:00,83.6,59.4,30.10,NE,35,0.0,0.0,44,0.00,,---,0.00,VWS V14.01,2013-04-17 17:29:00,
2013-04-17 13:34:00,82.8,58.7,30.10,NE,34,0.0,0.0,44,0.00,,---,0.00,VWS V14.01,2013-04-17 17:34:00,
2013-04-17 13:39:00,83.0,59.5,30.10,NE,55,0.0,0.0,45,0.00,,---,0.00,VWS V14.01,2013-04-17 17:39:00,
2013-04-17 13:44:00,83.2,60.9,30.10,SSE,161,0.0,2.0,47,0.00,,---,0.00,VWS V14.01,2013-04-17 17:44:00,
2013-04-17 13:49:00,83.6,59.4,30.09,SE,141,0.0,0.0,44,0.00,,---,0.00,VWS V14.01,2013-04-17 17:49:00,
2013-04-17 13:54:00,84.1,59.9,30.09,SE,124,0.0,3.0,44,0.00,,---,0.00,VWS V14.01,2013-04-17 17:54:00,
2013-04-17 13:59:00,83.8,58.9,30.09,ESE,106,0.0,4.0,43,0.00,,---,0.00,VWS V14.01,2013-04-17 17:59:00,
2013-04-17 14:04:00,84.0,60.4,30.09,SSW,200,0.0,5.0,45,0.00,,---,0.00,VWS V14.01,2013-04-17 18:04:00,
2013-04-17 14:09:00,84.0,59.8,30.09,NNE,27,0.0,0.0,44,0.00,,---,0.00,VWS V14.01,2013-04-17 18:09:00,
2013-04-17 14:14:00,84.5,59.6,30.09,NNE,32,0.0,0.0,43,0.00,,---,0.00,VWS V14.01,2013-04-17 18:14:00,
2013-04-17 14:19:00,84.1,59.2,30.08,SE,144,0.0,8.0,43,0.00,,---,0.00,VWS V14.01,2013-04-17 18:19:00,
2013-04-17 14:24:00,84.1,59.2,30.08,SE,134,0.0,0.0,43,0.00,,---,0.00,VWS V14.01,2013-04-17 18:24:00,
2013-04-17 14:29:00,84.0,59.8,30.08,ESE,102,0.0,0.0,44,0.00,,---,0.00,VWS V14.01,2013-04-17 18:29:00,
2013-04-17 14:34:00,84.0,58.5,30.08,SSE,147,0.0,0.0,42,0.00,,---,0.00,VWS V14.01,2013-04-17 18:34:00,
2013-04-17 14:39:00,83.4,57.3,30.08,SSE,161,0.0,1.0,41,0.00,,---,0.00,VWS V14.01,2013-04-17 18:39:00,
2013-04-17 14:44:00,82.8,58.0,30.08,South,169,0.0,5.0,43,0.00,,---,0.00,VWS V14.01,2013-04-17 18:44:00,
2013-04-17 14:49:00,82.4,58.3,30.08,SE,134,0.0,0.0,44,0.00,,---,0.00,VWS V14.01,2013-04-17 18:49:00,
2013-04-17 14:54:00,82.0,58.0,30.08,SE,134,0.0,0.0,44,0.00,,---,0.00,VWS V14.01,2013-04-17 18:54:00,
2013-04-17 14:59:00,81.8,59.6,30.08,ENE,66,0.0,0.0,47,0.00,,---,0.00,VWS V14.01,2013-04-17 18:59:00,
2013-04-17 15:04:00,81.1,59.6,30.08,ESE,120,0.0,0.0,48,0.00,,---,0.00,VWS V14.01,2013-04-17 19:04:00,
2013-04-17 15:09:00,80.9,59.4,30.08,SSE,152,0.0,0.0,48,0.00,,---,0.00,VWS V14.01,2013-04-17 19:09:00,
2013-04-17 15:14:00,80.5,59.6,30.08,NE,56,0.0,0.0,49,0.00,,---,0.00,VWS V14.01,2013-04-17 19:14:00,
2013-04-17 15:19:00,79.9,59.6,30.08,SSE,150,0.0,0.0,50,0.00,,---,0.00,VWS V14.01,2013-04-17 19:19:00,
2013-04-17 15:24:00,79.8,60.6,30.08,SE,131,0.0,0.0,52,0.00,,---,0.00,VWS V14.01,2013-04-17 19:24:00,
2013-04-17 15:29:00,79.8,61.2,30.08,SE,131,0.0,0.0,53,0.00,,---,0.00,VWS V14.01,2013-04-17 19:29:00,
2013-04-17 15:34:00,79.6,61.0,30.07,SE,131,0.0,0.0,53,0.00,,---,0.00,VWS V14.01,2013-04-17 19:34:00,
2013-04-17 15:39:00,79.8,61.7,30.07,SE,131,0.0,0.0,54,0.00,,---,0.00,VWS V14.01,2013-04-17 19:39:00,
2013-04-17 15:44:00,79.6,62.0,30.07,SE,131,0.0,0.0,55,0.00,,---,0.00,VWS V14.01,2013-04-17 19:44:00,
2013-04-17 15:49:00,79.4,61.3,30.06,SE,131,0.0,0.0,54,0.00,,---,0.00,VWS V14.01,2013-04-17 19:49:00,
2013-04-17 15:54:00,79.2,61.7,30.06,SE,131,0.0,0.0,55,0.00,,---,0.00,VWS V14.01,2013-04-17 19:54:00,
2013-04-17 15:59:00,79.0,61.5,30.06,SE,131,0.0,0.0,55,0.00,,---,0.00,VWS V14.01,2013-04-17 19:59:00,
2013-04-17 16:04:00,79.0,61.5,30.06,SE,131,0.0,0.0,55,0.00,,---,0.00,VWS V14.01,2013-04-17 20:04:00,
2013-04-17 16:09:00,79.0,62.0,30.06,SE,131,0.0,0.0,56,0.00,,---,0.00,VWS V14.01,2013-04-17 20:09:00,
2013-04-17 16:14:00,79.0,62.0,30.06,SE,130,0.0,0.0,56,0.00,,---,0.00,VWS V14.01,2013-04-17 20:14:00,
2013-04-17 16:19:00,79.0,61.5,30.06,East,92,0.0,0.0,55,0.00,,---,0.00,VWS V14.01,2013-04-17 20:19:00,
2013-04-17 16:24:00,79.2,61.7,30.06,NE,40,0.0,0.0,55,0.00,,---,0.00,VWS V14.01,2013-04-17 20:24:00,
2013-04-17 16:29:00,79.2,61.1,30.06,NE,38,0.0,0.0,54,0.00,,---,0.00,VWS V14.01,2013-04-17 20:29:00,
2013-04-17 16:34:00,79.4,60.8,30.05,NE,52,0.0,0.0,53,0.00,,---,0.00,VWS V14.01,2013-04-17 20:34:00,
2013-04-17 16:39:00,79.6,62.0,30.05,NE,52,0.0,0.0,55,0.00,,---,0.00,VWS V14.01,2013-04-17 20:39:00,
2013-04-17 16:44:00,79.8,60.1,30.05,NE,52,0.0,0.0,51,0.00,,---,0.00,VWS V14.01,2013-04-17 20:44:00,
2013-04-17 16:49:00,79.8,61.2,30.05,NE,52,0.0,0.0,53,0.00,,---,0.00,VWS V14.01,2013-04-17 20:49:00,
2013-04-17 16:54:00,79.6,61.5,30.05,NE,52,0.0,0.0,54,0.00,,---,0.00,VWS V14.01,2013-04-17 20:54:00,
2013-04-17 16:59:00,79.8,60.6,30.05,East,100,0.0,0.0,52,0.00,,---,0.00,VWS V14.01,2013-04-17 20:59:00,
2013-04-17 17:04:00,79.8,61.2,30.04,East,100,0.0,0.0,53,0.00,,---,0.00,VWS V14.01,2013-04-17 21:04:00,
2013-04-17 17:09:00,79.9,61.3,30.04,East,100,0.0,0.0,53,0.00,,---,0.00,VWS V14.01,2013-04-17 21:09:00,
2013-04-17 17:14:00,80.1,59.8,30.04,SE,127,0.0,0.0,50,0.00,,---,0.00,VWS V14.01,2013-04-17 21:14:00,
2013-04-17 17:19:00,80.3,59.4,30.04,SSW,202,0.0,0.0,49,0.00,,---,0.00,VWS V14.01,2013-04-17 21:19:00,
2013-04-17 17:24:00,80.3,61.1,30.04,NNW,333,0.0,0.0,52,0.00,,---,0.00,VWS V14.01,2013-04-17 21:24:00,
2013-04-17 17:29:00,80.3,60.5,30.04,ESE,104,0.0,2.0,51,0.00,,---,0.00,VWS V14.01,2013-04-17 21:29:00,
2013-04-17 17:34:00,80.3,60.5,30.04,NNE,31,0.0,0.0,51,0.00,,---,0.00,VWS V14.01,2013-04-17 21:34:00,
2013-04-17 17:39:00,80.3,60.5,30.04,ESE,114,0.0,0.0,51,0.00,,---,0.00,VWS V14.01,2013-04-17 21:39:00,
2013-04-17 17:44:00,80.5,60.7,30.04,SE,124,0.0,1.0,51,0.00,,---,0.00,VWS V14.01,2013-04-17 21:44:00,
2013-04-17 17:49:00,80.5,60.2,30.04,ENE,59,0.0,1.0,50,0.00,,---,0.00,VWS V14.01,2013-04-17 21:49:00,
2013-04-17 17:54:00,80.5,61.3,30.04,SE,128,0.0,1.0,52,0.00,,---,0.00,VWS V14.01,2013-04-17 21:54:00,
2013-04-17 17:59:00,80.5,61.8,30.04,SE,128,0.0,1.0,53,0.00,,---,0.00,VWS V14.01,2013-04-17 21:59:00,
2013-04-17 18:04:00,80.3,61.1,30.05,SE,133,0.0,1.0,52,0.00,,---,0.00,VWS V14.01,2013-04-17 22:04:00,
2013-04-17 18:09:00,80.1,60.9,30.05,SE,140,0.0,3.0,52,0.00,,---,0.00,VWS V14.01,2013-04-17 22:09:00,
2013-04-17 18:14:00,79.9,60.7,30.05,SE,136,0.0,5.0,52,0.00,,---,0.00,VWS V14.01,2013-04-17 22:14:00,
2013-04-17 18:19:00,79.9,61.3,30.05,SE,136,0.0,5.0,53,0.00,,---,0.00,VWS V14.01,2013-04-17 22:19:00,
2013-04-17 18:24:00,79.8,61.2,30.05,SSE,148,0.0,5.0,53,0.00,,---,0.00,VWS V14.01,2013-04-17 22:24:00,
2013-04-17 18:29:00,79.6,61.0,30.05,SSE,164,0.0,5.0,53,0.00,,---,0.00,VWS V14.01,2013-04-17 22:29:00,
2013-04-17 18:34:00,79.4,60.8,30.06,SSE,154,0.0,3.0,53,0.00,,---,0.00,VWS V14.01,2013-04-17 22:34:00,
2013-04-17 18:39:00,79.4,60.8,30.06,ESE,120,0.0,0.0,53,0.00,,---,0.00,VWS V14.01,2013-04-17 22:39:00,
2013-04-17 18:44:00,79.2,60.1,30.06,SW,233,0.0,0.0,52,0.00,,---,0.00,VWS V14.01,2013-04-17 22:44:00,
2013-04-17 18:49:00,78.8,60.2,30.06,SSW,202,0.0,0.0,53,0.00,,---,0.00,VWS V14.01,2013-04-17 22:49:00,
2013-04-17 18:54:00,78.5,60.0,30.06,SSW,202,0.0,0.0,53,0.00,,---,0.00,VWS V14.01,2013-04-17 22:54:00,
2013-04-17 18:59:00,78.3,60.8,30.06,SSW,202,0.0,0.0,55,0.00,,---,0.00,VWS V14.01,2013-04-17 22:59:00,
2013-04-17 19:04:00,77.9,60.5,30.06,SSW,202,0.0,0.0,55,0.00,,---,0.00,VWS V14.01,2013-04-17 23:04:00,
2013-04-17 19:09:00,77.2,60.3,30.06,SSW,202,0.0,0.0,56,0.00,,---,0.00,VWS V14.01,2013-04-17 23:09:00,
2013-04-17 19:14:00,76.8,61.4,30.06,SSW,202,0.0,0.0,59,0.00,,---,0.00,VWS V14.01,2013-04-17 23:14:00,
2013-04-17 19:19:00,76.5,61.6,30.05,SSW,202,0.0,0.0,60,0.00,,---,0.00,VWS V14.01,2013-04-17 23:19:00,
2013-04-17 19:24:00,76.1,61.2,30.05,SSW,202,0.0,0.0,60,0.00,,---,0.00,VWS V14.01,2013-04-17 23:24:00,
2013-04-17 19:29:00,76.0,61.6,30.05,SSW,202,0.0,0.0,61,0.00,,---,0.00,VWS V14.01,2013-04-17 23:29:00,
2013-04-17 19:34:00,75.6,61.7,30.05,SSW,202,0.0,0.0,62,0.00,,---,0.00,VWS V14.01,2013-04-17 23:34:00,
2013-04-17 19:39:00,75.6,62.1,30.05,SSW,202,0.0,0.0,63,0.00,,---,0.00,VWS V14.01,2013-04-17 23:39:00,
2013-04-17 19:44:00,75.6,62.1,30.05,SSW,202,0.0,0.0,63,0.00,,---,0.00,VWS V14.01,2013-04-17 23:44:00,
2013-04-17 19:49:00,74.6,61.6,30.05,SSW,202,0.0,0.0,64,0.00,,---,0.00,VWS V14.01,2013-04-17 23:49:00,
2013-04-17 19:54:00,74.6,62.5,30.05,SSW,202,0.0,0.0,66,0.00,,---,0.00,VWS V14.01,2013-04-17 23:54:00,
2013-04-17 19:59:00,74.6,62.9,30.05,SSW,202,0.0,0.0,67,0.00,,---,0.00,VWS V14.01,2013-04-17 23:59:00,
2013-04-17 20:04:00,74.6,62.9,30.06,SSW,202,0.0,0.0,67,0.00,,---,0.00,VWS V14.01,2013-04-18 00:04:00,
2013-04-17 20:09:00,74.6,62.9,30.06,SSW,202,0.0,0.0,67,0.00,,---,0.00,VWS V14.01,2013-04-18 00:09:00,
2013-04-17 20:14:00,74.6,62.9,30.06,SSW,202,0.0,0.0,67,0.00,,---,0.00,VWS V14.01,2013-04-18 00:14:00,
2013-04-17 20:19:00,74.6,62.9,30.06,SSW,202,0.0,0.0,67,0.00,,---,0.00,VWS V14.01,2013-04-18 00:19:00,
2013-04-17 20:24:00,72.7,61.1,30.06,SSW,202,0.0,0.0,67,0.00,,---,0.00,VWS V14.01,2013-04-18 00:24:00,
2013-04-17 20:29:00,72.5,60.9,30.06,SSW,202,0.0,0.0,67,0.00,,---,0.00,VWS V14.01,2013-04-18 00:29:00,
2013-04-17 20:34:00,72.5,60.9,30.07,SSW,202,0.0,0.0,67,0.00,,---,0.00,VWS V14.01,2013-04-18 00:34:00,
2013-04-17 20:39:00,72.5,60.9,30.07,SSW,202,0.0,0.0,67,0.00,,---,0.00,VWS V14.01,2013-04-18 00:39:00,
2013-04-17 20:44:00,72.5,60.9,30.07,SSW,202,0.0,0.0,67,0.00,,---,0.00,VWS V14.01,2013-04-18 00:44:00,
2013-04-17 20:49:00,72.5,60.9,30.07,SSW,202,0.0,0.0,67,0.00,,---,0.00,VWS V14.01,2013-04-18 00:49:00,
2013-04-17 20:54:00,72.5,60.9,30.07,SSW,202,0.0,0.0,67,0.00,,---,0.00,VWS V14.01,2013-04-18 00:54:00,
2013-04-17 20:59:00,72.5,60.9,30.07,SSW,202,0.0,0.0,67,0.00,,---,0.00,VWS V14.01,2013-04-18 00:59:00,
2013-04-17 21:04:00,72.5,60.9,30.08,SSW,202,0.0,0.0,67,0.00,,---,0.00,VWS V14.01,2013-04-18 01:04:00,
2013-04-17 21:09:00,72.5,60.9,30.08,SSW,202,0.0,0.0,67,0.00,,---,0.00,VWS V14.01,2013-04-18 01:09:00,
2013-04-17 21:14:00,72.5,60.9,30.08,SSW,202,0.0,0.0,67,0.00,,---,0.00,VWS V14.01,2013-04-18 01:14:00,
2013-04-17 21:19:00,71.1,59.6,30.08,SSW,202,0.0,0.0,67,0.00,,---,0.00,VWS V14.01,2013-04-18 01:19:00,
2013-04-17 21:24:00,71.1,59.6,30.08,South,172,0.0,0.0,67,0.00,,---,0.00,VWS V14.01,2013-04-18 01:24:00,
2013-04-17 21:29:00,71.1,59.6,30.08,South,172,0.0,0.0,67,0.00,,---,0.00,VWS V14.01,2013-04-18 01:29:00,
2013-04-17 21:34:00,71.1,59.6,30.08,South,172,0.0,0.0,67,0.00,,---,0.00,VWS V14.01,2013-04-18 01:34:00,
2013-04-17 21:39:00,71.1,59.6,30.08,South,172,0.0,0.0,67,0.00,,---,0.00,VWS V14.01,2013-04-18 01:39:00,
2013-04-17 21:44:00,71.1,59.6,30.08,South,172,0.0,0.0,67,0.00,,---,0.00,VWS V14.01,2013-04-18 01:44:00,
2013-04-17 21:49:00,71.1,59.6,30.08,South,172,0.0,0.0,67,0.00,,---,0.00,VWS V14.01,2013-04-18 01:49:00,
2013-04-17 21:54:00,71.1,59.6,30.08,South,185,0.0,0.0,67,0.00,,---,0.00,VWS V14.01,2013-04-18 01:54:00,
2013-04-17 21:59:00,71.1,59.6,30.08,SSE,155,0.0,0.0,67,0.00,,---,0.00,VWS V14.01,2013-04-18 01:59:00,
2013-04-17 22:04:00,70.6,59.1,30.08,SSE,155,0.0,0.0,67,0.00,,---,0.00,VWS V14.01,2013-04-18 02:04:00,
2013-04-17 22:09:00,70.4,58.9,30.08,SSE,155,0.0,0.0,67,0.00,,---,0.00,VWS V14.01,2013-04-18 02:09:00,
2013-04-17 22:14:00,70.4,58.9,30.08,SSE,152,0.0,0.0,67,0.00,,---,0.00,VWS V14.01,2013-04-18 02:14:00,
2013-04-17 22:19:00,70.3,58.8,30.08,SSE,152,0.0,0.0,67,0.00,,---,0.00,VWS V14.01,2013-04-18 02:19:00,
2013-04-17 22:24:00,70.1,58.7,30.08,SE,126,0.0,2.0,67,0.00,,---,0.00,VWS V14.01,2013-04-18 02:24:00,
2013-04-17 22:29:00,70.4,59.8,30.08,SE,134,0.0,2.0,69,0.00,,---,0.00,VWS V14.01,2013-04-18 02:29:00,
2013-04-17 22:34:00,70.8,59.3,30.08,SE,133,2.0,2.0,67,0.00,,---,0.00,VWS V14.01,2013-04-18 02:34:00,
2013-04-17 22:39:00,71.3,59.4,30.08,ESE,121,0.0,11.0,66,0.00,,---,0.00,VWS V14.01,2013-04-18 02:39:00,
2013-04-17 22:44:00,71.5,59.6,30.08,South,171,0.0,0.0,66,0.00,,---,0.00,VWS V14.01,2013-04-18 02:44:00,
2013-04-17 22:49:00,71.8,59.0,30.08,WSW,241,5.0,6.0,64,0.00,,---,0.00,VWS V14.01,2013-04-18 02:49:00,
2013-04-17 22:54:00,72.0,58.7,30.08,SSW,212,0.0,7.0,63,0.00,,---,0.00,VWS V14.01,2013-04-18 02:54:00,
2013-04-17 22:59:00,72.0,58.7,30.08,SE,126,0.0,7.0,63,0.00,,---,0.00,VWS V14.01,2013-04-18 02:59:00,
2013-04-17 23:04:00,72.0,58.7,30.09,SW,236,0.0,2.0,63,0.00,,---,0.00,VWS V14.01,2013-04-18 03:04:00,
2013-04-17 23:09:00,72.0,58.7,30.09,SE,145,0.0,0.0,63,0.00,,---,0.00,VWS V14.01,2013-04-18 03:09:00,
2013-04-17 23:14:00,72.0,59.2,30.09,ESE,107,0.0,0.0,64,0.00,,---,0.00,VWS V14.01,2013-04-18 03:14:00,
2013-04-17 23:19:00,71.8,59.0,30.09,SSE,168,0.0,2.0,64,0.00,,---,0.00,VWS V14.01,2013-04-18 03:19:00,
2013-04-17 23:24:00,71.8,59.0,30.09,SW,219,0.0,2.0,64,0.00,,---,0.00,VWS V14.01,2013-04-18 03:24:00,
2013-04-17 23:29:00,71.6,58.8,30.09,SW,236,0.0,0.0,64,0.00,,---,0.00,VWS V14.01,2013-04-18 03:29:00,
2013-04-17 23:34:00,71.6,58.8,30.09,SSW,206,0.0,5.0,64,0.00,,---,0.00,VWS V14.01,2013-04-18 03:34:00,
2013-04-17 23:39:00,71.5,59.1,30.09,East,100,0.0,3.0,65,0.00,,---,0.00,VWS V14.01,2013-04-18 03:39:00,
2013-04-17 23:44:00,71.3,58.9,30.09,South,189,0.0,0.0,65,0.00,,---,0.00,VWS V14.01,2013-04-18 03:44:00,
2013-04-17 23:49:00,71.1,58.8,30.10,SW,226,0.0,0.0,65,0.00,,---,0.00,VWS V14.01,2013-04-18 03:49:00,
2013-04-17 23:54:00,71.1,59.2,30.10,South,181,0.0,0.0,66,0.00,,---,0.00,VWS V14.01,2013-04-18 03:54:00,
2013-04-17 23:59:00,70.9,59.0,30.10,SSE,161,0.0,0.0,66,0.00,,---,0.00,VWS V14.01,2013-04-18 03:59:00,